FW1957 Weather Reports


Display with metric or nautical units.
time (UTC)temp
F
wind
direction
speed
MPH
gust
MPH
rain 1hr
in
rain 24hr
in
rain mn
in
humidity
%
barometer
mb
20260906073215 69 61 8.0 14.0 0.00 0.00 0.00 56 1024.7
20260906072719 69 38 8.0 16.0 0.00 0.00 0.00 55 1024.6
20260906072207 69 322 8.0 16.0 0.00 0.00 0.00 56 1024.8
20260906071704 69 345 8.0 16.0 0.00 0.00 0.00 57 1024.6
20260906071213 68 17 8.0 15.0 0.00 0.00 0.00 57 1024.6
20260906070712 68 338 8.0 15.0 0.00 0.00 0.00 58 1024.6
20260906070211 67 333 8.0 16.0 0.00 0.00 0.00 58 1024.6
20260906065706 67 327 9.0 16.0 0.00 0.00 0.00 59 1024.6
20260906064709 66 355 7.0 13.0 0.00 0.00 0.00 61 1024.5
20260906062718 64 15 4.0 10.0 0.00 0.00 0.00 66 1024.5
20260906062208 63 355 4.0 9.0 0.00 0.00 0.00 68 1024.5
20260906061719 62 322 3.0 9.0 0.00 0.00 0.00 69 1024.5
20260906060716 61 12 2.0 5.0 0.00 0.00 0.00 71 1024.4
20260906060215 60 329 2.0 3.0 0.00 0.00 0.00 73 1024.4
20260906055719 60 324 2.0 3.0 0.00 0.00 0.00 73 1024.3
20260906054737 59 288 1.0 7.0 0.00 0.00 0.00 74 1024.2
20260906054211 59 306 2.0 7.0 0.00 0.00 0.00 75 1024.2
20260906053718 59 298 2.0 7.0 0.00 0.00 0.00 75 1024.2
20260906053208 59 292 2.0 5.0 0.00 0.00 0.00 75 1024.1
20260906052716 58 292 2.0 5.0 0.00 0.00 0.00 75 1024.1
20260906052218 58 302 3.0 5.0 0.00 0.00 0.00 75 1024.0
20260906051721 58 300 3.0 5.0 0.00 0.00 0.00 75 1024.0
20260906050732 58 306 2.0 4.0 0.00 0.00 0.00 75 1023.9
20260906050207 58 313 2.0 4.0 0.00 0.00 0.00 75 1023.9
20260906045705 58 313 2.0 3.0 0.00 0.00 0.00 75 1023.8
20260906045219 58 310 2.0 4.0 0.00 0.00 0.00 75 1023.7
20260906044713 58 313 2.0 4.0 0.00 0.00 0.00 75 1023.7
20260906044218 58 317 2.0 4.0 0.00 0.00 0.00 75 1023.8
20260906043712 58 327 2.0 4.0 0.00 0.00 0.00 75 1023.7
20260906043218 58 312 2.0 4.0 0.00 0.00 0.00 75 1023.7
20260906042710 58 321 2.0 4.0 0.00 0.00 0.00 75 1023.6
20260906042213 58 310 3.0 4.0 0.00 0.00 0.00 74 1023.6
20260906041712 58 306 3.0 4.0 0.00 0.00 0.00 74 1023.6
20260906041212 58 301 3.0 4.0 0.00 0.00 0.00 73 1023.6
20260906040708 58 297 2.0 4.0 0.00 0.00 0.00 73 1023.5
20260906040220 59 297 2.0 4.0 0.00 0.00 0.00 73 1023.4
20260906035709 59 284 2.0 4.0 0.00 0.00 0.00 72 1023.4
20260906035207 59 295 2.0 5.0 0.00 0.00 0.00 72 1023.4
20260906034710 59 287 2.0 5.0 0.00 0.00 0.00 72 1023.4
20260906034217 59 307 2.0 5.0 0.00 0.00 0.00 72 1023.4
20260906033706 60 321 2.0 5.0 0.00 0.00 0.00 71 1023.3
20260906033246 60 309 2.0 4.0 0.00 0.00 0.00 70 1023.3
20260906032713 60 333 2.0 4.0 0.00 0.00 0.00 70 1023.2
20260906031712 60 317 2.0 5.0 0.00 0.00 0.00 69 1023.2
20260906031211 60 324 2.0 5.0 0.00 0.00 0.00 69 1023.1
20260906030712 60 317 2.0 5.0 0.00 0.00 0.00 68 1023.1
20260906030206 60 328 2.0 3.0 0.00 0.00 0.00 67 1023.1
20260906025716 61 325 2.0 3.0 0.00 0.00 0.00 67 1023.1
20260906024211 61 302 2.0 4.0 0.00 0.00 0.00 66 1023.2
20260906023718 61 300 2.0 4.0 0.00 0.00 0.00 65 1023.2
20260906023208 61 302 3.0 4.0 0.00 0.00 0.00 65 1023.2
20260906022208 62 300 2.0 4.0 0.00 0.00 0.00 65 1023.2
20260906021706 62 285 3.0 4.0 0.00 0.00 0.00 65 1023.2
20260906021211 62 289 3.0 4.0 0.00 0.00 0.00 65 1023.2
20260906020207 63 301 2.0 4.0 0.00 0.00 0.00 64 1023.2
20260906015705 63 300 2.0 4.0 0.00 0.00 0.00 64 1023.1
20260906015215 63 288 2.0 4.0 0.00 0.00 0.00 63 1023.1
20260906014720 64 308 2.0 4.0 0.00 0.00 0.00 63 1022.9
20260906014207 64 294 2.0 5.0 0.00 0.00 0.00 62 1022.9
20260906013718 64 304 3.0 5.0 0.00 0.00 0.00 62 1022.9
20260906013219 64 297 3.0 10.0 0.00 0.00 0.00 62 1023.0
20260906012210 64 299 4.0 10.0 0.00 0.00 0.00 62 1022.9
20260906011713 64 315 4.0 7.0 0.00 0.00 0.00 62 1022.9
20260906011218 65 288 4.0 6.0 0.00 0.00 0.00 62 1022.8
20260906010710 65 317 3.0 5.0 0.00 0.00 0.00 61 1022.8
20260906010208 65 286 3.0 5.0 0.00 0.00 0.00 59 1022.8
20260906004708 66 316 3.0 10.0 0.00 0.00 0.00 58 1022.5
20260906004215 66 296 4.0 11.0 0.00 0.00 0.00 58 1022.6
20260906003717 66 302 5.0 11.0 0.00 0.00 0.00 57 1022.5
20260906003205 66 322 5.0 12.0 0.00 0.00 0.00 57 1022.5
20260906001705 67 329 7.0 14.0 0.00 0.00 0.00 58 1022.4
20260906001207 67 338 8.0 14.0 0.00 0.00 0.00 58 1022.5
20260906000713 67 335 9.0 14.0 0.00 0.00 0.00 58 1022.5
20260906000213 66 318 9.0 12.0 0.00 0.00 0.00 59 1022.4
20260905235714 66 320 7.0 16.0 0.00 0.00 0.00 61 1022.2
20260905235215 67 347 7.0 16.0 0.00 0.00 0.00 63 1022.2
20260905234715 66 288 7.0 12.0 0.00 0.00 0.00 64 1022.2
20260905233719 67 332 4.0 12.0 0.00 0.00 0.00 66 1022.1
20260905233214 67 5 4.0 11.0 0.00 0.00 0.00 66 1022.0
20260905232711 67 310 5.0 11.0 0.00 0.00 0.00 65 1022.0
20260905232216 67 337 5.0 11.0 0.00 0.00 0.00 65 1021.9
20260905231711 67 329 5.0 10.0 0.00 0.00 0.00 66 1021.8
20260905231219 67 312 4.0 9.0 0.00 0.00 0.00 66 1021.7
20260905225716 67 329 4.0 11.0 0.00 0.00 0.00 66 1021.5
20260905224706 66 309 5.0 10.0 0.00 0.00 0.00 68 1021.5
20260905224210 66 341 5.0 15.0 0.00 0.00 0.00 68 1021.4
20260905223711 65 295 6.0 15.0 0.00 0.00 0.00 69 1021.2
20260905223210 65 312 6.0 11.0 0.00 0.00 0.00 69 1021.2
20260905221714 64 300 5.0 8.0 0.00 0.00 0.00 70 1021.1
20260905221215 63 296 3.0 6.0 0.00 0.00 0.00 70 1021.2
20260905220718 63 283 2.0 6.0 0.00 0.00 0.00 70 1021.1
20260905220219 64 304 2.0 3.0 0.00 0.00 0.00 70 1021.2
20260905215707 64 295 1.0 4.0 0.00 0.00 0.00 70 1021.1
20260905214708 64 276 2.0 4.0 0.00 0.00 0.00 68 1020.9
20260905214212 64 280 2.0 4.0 0.00 0.00 0.00 68 1020.9
20260905213705 64 285 2.0 4.0 0.00 0.00 0.00 68 1020.9
20260905213209 64 275 2.0 8.0 0.00 0.00 0.00 68 1020.9
20260905212717 64 293 3.0 8.0 0.00 0.00 0.00 68 1020.9
20260905212213 64 286 3.0 8.0 0.00 0.00 0.00 68 1020.8
20260905211719 64 298 2.0 4.0 0.00 0.00 0.00 67 1020.8
20260905210710 64 290 2.0 4.0 0.00 0.00 0.00 67 1020.7
20260905210214 65 309 3.0 4.0 0.00 0.00 0.00 66 1020.7
20260905205716 65 311 2.0 4.0 0.00 0.00 0.00 67 1020.8
20260905205213 65 321 2.0 6.0 0.00 0.00 0.00 66 1020.8
20260905204715 65 302 2.0 6.0 0.00 0.00 0.00 66 1020.8
20260905204218 65 282 2.0 6.0 0.00 0.00 0.00 66 1020.8
20260905203717 65 269 3.0 4.0 0.00 0.00 0.00 65 1020.8
20260905203211 66 297 3.0 4.0 0.00 0.00 0.00 65 1020.8
20260905202721 66 279 3.0 4.0 0.00 0.00 0.00 64 1020.8
20260905202232 66 301 2.0 3.0 0.00 0.00 0.00 65 1020.8
20260905201713 66 298 1.0 3.0 0.00 0.00 0.00 65 1020.8
20260905200715 67 280 2.0 4.0 0.00 0.00 0.00 64 1020.7
20260905200215 67 300 2.0 4.0 0.00 0.00 0.00 64 1020.7
20260905195708 67 300 2.0 6.0 0.00 0.00 0.00 63 1020.6
20260905195217 67 318 2.0 7.0 0.00 0.00 0.00 63 1020.6
20260905194716 67 279 3.0 7.0 0.00 0.00 0.00 63 1020.5
20260905194207 67 273 3.0 7.0 0.00 0.00 0.00 63 1020.5
20260905193709 67 299 3.0 6.0 0.00 0.00 0.00 63 1020.5
20260905193212 67 302 3.0 6.0 0.00 0.00 0.00 63 1020.5
20260905192708 67 301 3.0 6.0 0.00 0.00 0.00 63 1020.5
20260905192206 68 265 3.0 6.0 0.00 0.00 0.00 64 1020.4
20260905185736 69 276 2.0 6.0 0.00 0.00 0.00 63 1020.2
20260905185219 69 284 2.0 6.0 0.00 0.00 0.00 63 1020.1
20260905184210 69 283 3.0 5.0 0.00 0.00 0.00 63 1019.9
20260905183710 69 303 3.0 5.0 0.00 0.00 0.00 63 1019.9
20260905183205 70 304 3.0 4.0 0.00 0.00 0.00 63 1019.8
20260905182719 70 302 3.0 4.0 0.00 0.00 0.00 62 1019.8
20260905182216 70 301 3.0 5.0 0.00 0.00 0.00 62 1019.7
20260905181717 70 311 3.0 5.0 0.00 0.00 0.00 62 1019.6
20260905181205 70 325 3.0 5.0 0.00 0.00 0.00 61 1019.6
20260905180705 71 351 3.0 9.0 0.00 0.00 0.00 61 1019.6
20260905180216 71 342 2.0 9.0 0.00 0.00 0.00 60 1019.5
20260905175710 71 323 3.0 9.0 0.00 0.00 0.00 60 1019.4
20260905175212 71 346 3.0 11.0 0.00 0.00 0.00 60 1019.3
20260905174705 71 344 4.0 11.0 0.00 0.00 0.00 59 1019.2
20260905174214 72 0 5.0 15.0 0.00 0.00 0.00 59 1019.2
20260905173220 72 311 5.0 11.0 0.00 0.00 0.00 58 1019.1
20260905172709 72 355 5.0 13.0 0.00 0.00 0.00 59 1019.0
20260905172211 72 328 6.0 13.0 0.00 0.00 0.00 59 1019.0
20260905171713 73 0 6.0 14.0 0.00 0.00 0.00 59 1019.0
20260905171206 73 311 7.0 14.0 0.00 0.00 0.00 58 1019.0
20260905170714 73 323 7.0 14.0 0.00 0.00 0.00 57 1018.9
20260905170213 73 325 6.0 14.0 0.00 0.00 0.00 57 1018.7
20260905165708 73 342 8.0 16.0 0.00 0.00 0.00 57 1018.7
20260905165213 74 321 10.0 16.0 0.00 0.00 0.00 57 1018.6
20260905164717 74 5 10.0 18.0 0.00 0.00 0.00 56 1018.5
20260905164238 74 331 9.0 18.0 0.00 0.00 0.00 55 1018.3
20260905163211 75 19 8.0 16.0 0.00 0.00 0.00 55 1018.2
20260905162708 75 16 8.0 18.0 0.00 0.00 0.00 54 1018.3
20260905162215 75 314 10.0 18.0 0.00 0.00 0.00 54 1018.2
20260905161716 75 348 11.0 18.0 0.00 0.00 0.00 54 1018.2
20260905161207 75 5 10.0 18.0 0.00 0.00 0.00 53 1018.1
20260905160718 76 339 10.0 18.0 0.00 0.00 0.00 53 1018.0
20260905160219 76 334 10.0 18.0 0.00 0.00 0.00 53 1018.0
20260905155707 76 325 9.0 18.0 0.00 0.00 0.00 52 1017.9
20260905155219 76 349 10.0 18.0 0.00 0.00 0.00 51 1017.9
20260905154715 77 335 10.0 17.0 0.00 0.00 0.00 50 1018.0
20260905154215 77 316 8.0 15.0 0.00 0.00 0.00 49 1017.9
20260905153206 77 300 8.0 17.0 0.00 0.00 0.00 49 1017.8
20260905152210 77 298 10.0 17.0 0.00 0.00 0.00 47 1017.8
20260905151709 78 348 10.0 17.0 0.00 0.00 0.00 46 1017.7
20260905151215 78 340 9.0 17.0 0.00 0.00 0.00 46 1017.6
20260905150716 78 350 8.0 14.0 0.00 0.00 0.00 46 1017.6
20260905145716 78 312 8.0 18.0 0.00 0.00 0.00 44 1017.7
20260905145215 78 282 9.0 18.0 0.00 0.00 0.00 44 1017.7
20260905144708 78 308 9.0 15.0 0.00 0.00 0.00 45 1017.6
20260905144219 78 284 8.0 15.0 0.00 0.00 0.00 45 1017.6
20260905143711 78 319 7.0 15.0 0.00 0.00 0.00 46 1017.6
20260905143219 78 327 5.0 12.0 0.00 0.00 0.00 47 1017.6
20260905141712 77 17 7.0 14.0 0.00 0.00 0.00 50 1017.7
20260905140715 76 313 7.0 14.0 0.00 0.00 0.00 51 1017.8
20260905140206 76 355 7.0 13.0 0.00 0.00 0.00 51 1017.9
20260905135706 76 344 7.0 14.0 0.00 0.00 0.00 51 1018.0
20260905135243 76 298 9.0 19.0 0.00 0.00 0.00 52 1018.0
20260905134710 76 343 9.0 19.0 0.00 0.00 0.00 52 1018.1
20260905134216 76 300 10.0 20.0 0.00 0.00 0.00 52 1018.1
20260905133719 76 335 11.0 24.0 0.00 0.00 0.00 51 1018.1
20260905133209 76 347 12.0 24.0 0.00 0.00 0.00 50 1018.0
20260905132719 77 344 12.0 24.0 0.00 0.00 0.00 50 1017.9
20260905132216 77 319 12.0 22.0 0.00 0.00 0.00 49 1017.9
20260905131716 78 338 12.0 22.0 0.00 0.00 0.00 49 1017.8
20260905131208 78 348 11.0 19.0 0.00 0.00 0.00 49 1017.8
20260905130707 77 0 10.0 19.0 0.00 0.00 0.00 49 1017.9
20260905130214 77 26 10.0 16.0 0.00 0.00 0.00 49 1017.9
20260905125719 77 339 10.0 16.0 0.00 0.00 0.00 49 1017.9
20260905125207 77 343 10.0 21.0 0.00 0.00 0.00 48 1017.9
20260905124713 77 333 10.0 21.0 0.00 0.00 0.00 49 1017.9
20260905124216 77 290 9.0 20.0 0.00 0.00 0.00 50 1017.9
20260905123718 77 335 10.0 23.0 0.00 0.00 0.00 50 1017.9
20260905123219 76 335 12.0 23.0 0.00 0.00 0.00 49 1017.9
20260905122210 77 344 12.0 23.0 0.00 0.00 0.00 49 1017.8
20260905121717 77 326 12.0 23.0 0.00 0.00 0.00 50 1017.9
20260905121205 77 5 11.0 23.0 0.00 0.00 0.00 50 1017.9
20260905120214 76 317 12.0 23.0 0.00 0.00 0.00 52 1018.0
20260905115708 76 306 13.0 23.0 0.00 0.00 0.00 52 1017.8
20260905115216 76 333 12.0 23.0 0.00 0.00 0.00 52 1018.0
20260905114709 76 344 12.0 23.0 0.00 0.00 0.00 51 1017.9
20260905114205 76 330 13.0 23.0 0.00 0.00 0.00 51 1018.0
20260905113721 77 322 11.0 17.0 0.00 0.00 0.00 51 1018.0
20260905113206 76 293 9.0 17.0 0.00 0.00 0.00 53 1017.9
20260905112710 76 296 7.0 10.0 0.00 0.00 0.00 53 1017.9
20260905112209 75 341 3.0 8.0 0.00 0.00 0.00 55 1017.9
20260905111219 74 331 3.0 8.0 0.00 0.00 0.00 59 1018.2
20260905110716 73 23 3.0 8.0 0.00 0.00 0.00 59 1018.3
20260905110212 72 40 2.0 4.0 0.00 0.00 0.00 60 1018.2
20260905105211 72 74 2.0 5.0 0.00 0.00 0.00 59 1018.3
20260905104713 71 350 2.0 7.0 0.00 0.00 0.00 60 1018.3
20260905104208 71 89 3.0 8.0 0.00 0.00 0.00 61 1018.3
20260905103708 71 74 3.0 8.0 0.00 0.00 0.00 62 1018.3
20260905101713 70 256 6.0 10.0 0.00 0.00 0.00 63 1018.4
20260905101230 70 254 5.0 11.0 0.00 0.00 0.00 63 1018.3
20260905100705 69 221 6.0 11.0 0.00 0.00 0.00 64 1018.3
20260905100232 69 258 6.0 11.0 0.00 0.00 0.00 64 1018.5
20260905095242 69 255 3.0 12.0 0.00 0.00 0.00 64 1018.4
20260905094745 69 305 5.0 13.0 0.00 0.00 0.00 63 1018.5
20260905093719 70 250 9.0 13.0 0.00 0.00 0.00 63 1018.7
20260905092215 70 281 5.0 17.0 0.00 0.00 0.00 62 1018.6
20260905091707 70 298 3.0 10.0 0.00 0.00 0.00 62 1018.6
20260905090715 69 219 3.0 10.0 0.00 0.00 0.00 63 1018.7
20260905090210 69 213 2.0 5.0 0.00 0.00 0.00 63 1018.7
20260905085708 69 265 2.0 6.0 0.00 0.00 0.00 63 1018.7
20260905084709 68 315 3.0 10.0 0.00 0.00 0.00 62 1018.8
20260905084212 68 5 3.0 12.0 0.00 0.00 0.00 63 1018.7
20260905083711 68 5 4.0 12.0 0.00 0.00 0.00 63 1018.9
20260905083209 68 5 5.0 13.0 0.00 0.00 0.00 62 1019.0
20260905082709 68 355 6.0 13.0 0.00 0.00 0.00 62 1019.0
20260905082212 68 349 6.0 11.0 0.00 0.00 0.00 62 1018.9
20260905081706 68 324 6.0 11.0 0.00 0.00 0.00 62 1018.9
20260905081215 67 30 5.0 11.0 0.00 0.00 0.00 62 1019.0
20260905080713 67 59 6.0 12.0 0.00 0.00 0.00 63 1019.1
20260905080218 67 345 6.0 14.0 0.00 0.00 0.00 62 1019.1
20260905075211 67 323 7.0 15.0 0.00 0.00 0.00 62 1019.2
20260905074719 67 297 7.0 15.0 0.00 0.00 0.00 62 1019.2
20260905074221 67 312 9.0 15.0 0.00 0.00 0.00 61 1019.2
20260905073713 67 311 8.0 16.0 0.00 0.00 0.00 61 1019.2